Overview Statistics Trail Chart Weather Telemetry Raw packets
 

This is the latest recevied weather packets stored in our database for station/object HI3RRR-14. If no packets are shown the sender has not sent any weather packets the latest 10 day(s).

<< 42 43 44 45 46 47 48 >>
Time Temp. Humidity Pressure Rain* Wind** Luminosity Snow
1787969383 23.89° C 80% 1016 hPa 0 mm - - -
1787968782 23.89° C 80% 1016 hPa 0 mm - - -
1787968182 23.89° C 80% 1016 hPa 0 mm - - -
1787967581 23.89° C 80% 1016 hPa 0 mm - - -
1787966981 24.44° C 77% 1015 hPa 0 mm - - -
1787966380 24.44° C 77% 1015 hPa 0 mm - - -
1787965780 24.44° C 76% 1016 hPa 0 mm - - -
1787965179 24.44° C 79% 1016 hPa 0 mm - - -
1787964578 25° C 77% 1016 hPa 0 mm - - -
1787963978 25° C 77% 1016 hPa 0 mm - - -
1787963377 25.56° C 73% 1015 hPa 0 mm - - -
1787962776 25.56° C 73% 1015 hPa 0 mm - - -
1787962176 25.56° C 73% 1015 hPa 0 mm - - -
1787961575 26.11° C 75% 1015 hPa 0 mm - - -
1787960975 26.11° C 75% 1015 hPa 0 mm - - -
1787960374 26.11° C 75% 1015 hPa 0 mm - - -
1787959773 26.67° C 69% 1014 hPa 0 mm - - -
1787959173 26.67° C 69% 1014 hPa 0 mm - - -
1787958572 26.67° C 69% 1014 hPa 0 mm - - -
1787957972 26.67° C 70% 1014 hPa 0 mm - - -
1787957371 26.67° C 70% 1014 hPa 0 mm - - -
1787956770 27.22° C 69% 1014 hPa 0 mm - - -
1787956170 28.33° C 61% 1013 hPa 0 mm - - -
1787955569 28.33° C 61% 1013 hPa 0 mm - - -
1787954969 28.33° C 60% 1014 hPa 0 mm - - -

* Rain latest hour (hover to see other rain measurements)
** Current wind speed in m/s (hover to see current wind gust speed)